| time (UTC) | temp F | wind direction | speed MPH | gust MPH | rain 1hr in | rain 24hr in | rain mn in | humidity % | barometer mb |
| 20260903113714 | 91 | 86 | 4.0 | 10.0 | 0.00 | 0.00 | 0.00 | 42 | 1018.2 |
| 20260903113215 | 91 | 101 | 7.0 | 16.0 | 0.00 | 0.00 | 0.00 | 42 | 1018.2 |
| 20260903103215 | 87 | 97 | 3.0 | 7.0 | 0.00 | 0.00 | 0.00 | 49 | 1019.5 |
| 20260903100214 | 85 | 64 | 3.0 | 8.0 | 0.00 | 0.00 | 0.00 | 54 | 1019.9 |
| 20260903090714 | 82 | 77 | 0.0 | 0.0 | 0.00 | 0.00 | 0.00 | 59 | 1020.2 |
| 20260903090214 | 82 | 86 | 0.0 | 0.0 | 0.00 | 0.00 | 0.00 | 62 | 1020.1 |
| 20260903083714 | 79 | 96 | 0.0 | 0.0 | 0.00 | 0.00 | 0.00 | 66 | 1020.2 |
| 20260903073215 | 74 | 137 | 0.0 | 0.0 | 0.00 | 0.00 | 0.00 | 72 | 1020.5 |
| 20260903070215 | 69 | 250 | 0.0 | 0.0 | 0.00 | 0.00 | 0.00 | 78 | 1020.7 |
| 20260903060715 | 63 | 263 | 0.0 | 0.0 | 0.00 | 0.00 | 0.00 | 80 | 1020.8 |
| 20260903060215 | 62 | 262 | 0.0 | 0.0 | 0.00 | 0.00 | 0.00 | 80 | 1020.6 |
| 20260903050715 | 62 | 221 | 0.0 | 0.0 | 0.00 | 0.00 | 0.00 | 80 | 1020.0 |
| 20260903050215 | 62 | 221 | 0.0 | 0.0 | 0.00 | 0.00 | 0.00 | 80 | 1019.8 |
| 20260903040715 | 63 | 244 | 0.0 | 0.0 | 0.00 | 0.00 | 0.00 | 80 | 1019.7 |
| 20260903040215 | 63 | 259 | 0.0 | 0.0 | 0.00 | 0.00 | 0.00 | 80 | 1019.6 |
| 20260903033714 | 63 | 255 | 0.0 | 0.0 | 0.00 | 0.00 | 0.00 | 80 | 1019.8 |
| 20260903030714 | 63 | 244 | 0.0 | 0.0 | 0.00 | 0.00 | 0.00 | 80 | 1020.0 |
| 20260903023715 | 63 | 254 | 0.0 | 0.0 | 0.00 | 0.00 | 0.00 | 80 | 1020.1 |
| 20260903023214 | 63 | 254 | 0.0 | 0.0 | 0.00 | 0.00 | 0.00 | 80 | 1020.1 |
| 20260903020714 | 64 | 254 | 0.0 | 0.0 | 0.00 | 0.00 | 0.00 | 80 | 1020.0 |
| 20260903013214 | 65 | 254 | 0.0 | 0.0 | 0.00 | 0.00 | 0.00 | 79 | 1019.9 |
| 20260903010214 | 66 | 254 | 0.0 | 0.0 | 0.00 | 0.00 | 0.00 | 79 | 1019.8 |
| 20260903003214 | 67 | 252 | 0.0 | 0.0 | 0.00 | 0.00 | 0.00 | 79 | 1019.8 |
| 20260903000215 | 68 | 252 | 0.0 | 0.0 | 0.00 | 0.00 | 0.00 | 79 | 1019.8 |
| 20260902230714 | 68 | 284 | 0.0 | 0.0 | 0.00 | 0.00 | 0.00 | 78 | 1019.7 |
| 20260902220714 | 71 | 286 | 0.0 | 0.0 | 0.00 | 0.00 | 0.00 | 76 | 1019.4 |
| 20260902213714 | 72 | 275 | 0.0 | 0.0 | 0.00 | 0.00 | 0.00 | 75 | 1019.4 |
| 20260902210713 | 73 | 216 | 1.0 | 6.0 | 0.00 | 0.00 | 0.00 | 74 | 1019.1 |
| 20260902200714 | 75 | 89 | 0.0 | 0.0 | 0.00 | 0.00 | 0.00 | 69 | 1019.1 |
| 20260902193237 | 77 | 87 | 0.0 | 3.0 | 0.00 | 0.00 | 0.00 | 65 | 1018.8 |
| 20260902190737 | 78 | 115 | 0.0 | 0.0 | 0.00 | 0.00 | 0.00 | 65 | 1018.2 |
| 20260902190236 | 79 | 115 | 0.0 | 3.0 | 0.00 | 0.00 | 0.00 | 64 | 1018.4 |
| 20260902183236 | 80 | 104 | 0.0 | 8.0 | 0.00 | 0.00 | 0.00 | 63 | 1017.8 |
| 20260902173737 | 84 | 117 | 3.0 | 7.0 | 0.00 | 0.00 | 0.00 | 54 | 1017.3 |
| 20260902170736 | 87 | 110 | 3.0 | 10.0 | 0.00 | 0.00 | 0.00 | 50 | 1016.8 |
| 20260902170236 | 87 | 118 | 4.0 | 8.0 | 0.00 | 0.00 | 0.00 | 49 | 1016.9 |
| 20260902163236 | 88 | 153 | 5.0 | 12.0 | 0.00 | 0.00 | 0.00 | 47 | 1016.8 |
| 20260902153236 | 89 | 147 | 5.0 | 15.0 | 0.00 | 0.00 | 0.00 | 43 | 1016.9 |
| 20260902150736 | 90 | 154 | 6.0 | 12.0 | 0.00 | 0.00 | 0.00 | 42 | 1016.8 |
| 20260902143236 | 90 | 149 | 5.0 | 17.0 | 0.00 | 0.00 | 0.00 | 41 | 1016.9 |
| 20260902140235 | 90 | 125 | 5.0 | 16.0 | 0.00 | 0.00 | 0.00 | 40 | 1017.1 |
| 20260902133736 | 91 | 130 | 7.0 | 15.0 | 0.00 | 0.00 | 0.00 | 39 | 1017.2 |
| 20260902133236 | 92 | 120 | 10.0 | 18.0 | 0.00 | 0.00 | 0.00 | 38 | 1017.1 |
| 20260902130736 | 92 | 121 | 5.0 | 13.0 | 0.00 | 0.00 | 0.00 | 39 | 1017.1 |
| 20260902130236 | 93 | 98 | 7.0 | 12.0 | 0.00 | 0.00 | 0.00 | 39 | 1017.0 |
| 20260902123735 | 93 | 126 | 5.0 | 7.0 | 0.00 | 0.00 | 0.00 | 41 | 1017.2 |